ATLAS AGENA D R/B, 4511

Orbit data source: Space-Track

ATLAS AGENA D R/B, 4511 is space debris in GEO originally from a launch on Fri, 19 Jun 1970 UTC launched from the Air Force Eastern Test Range (AFETR). Debris objects in space refer to the collection of defunct objects orbiting the Earth. Examples of debris include non-operational satellites, rocket bodies, and fragments generated from explosions, collisions, or faulty payload assembly.

Not visible in the next 10 days
Identifier
4511, 1970-046B
Orbit
GEO
Country
Flag of USUS
Related business
Manufacturer
LMSC
Mission
Spacecraft
Bus & Motor
AGENA D, Unknown motor
Mass
600 kg wet, 600 kg dry
Launch date (UTC)
1970-06-19 (55 years ago)
Launch vehicle
Unknown
Launch site
Air Force Eastern Test Range (AFETR)
Object type
Payload
Rocket body
Debris
Shape & HBR
Unknown
Radar Cross Section
RCS unknown

Expand to show TLE details & history
Last TLE update: 2 days ago

TLE from 2 days ago
0 ATLAS AGENA D R/B
1  4511U 70046B   25303.95018686 -.00000034  00000-0  00000+0 0  9991
2  4511   1.1039  88.0151 0029827 299.0363  61.0979  1.00448770 23255
Epoch: 2025-10-30T22:48Z
TLE epoch observation values (Epoch: 2025-10-30T22:48:16.144Z)
Latitude
0.00001°
Longitude
66.84445°
Altitude
35,675.657 km
Speed
3.081 km/s
True Right ascension
05h 53m 39s
True Declination
0° 00' 00"
Sunlit
Object was in daylight at epoch
Visualization orbit readout
Latitude
Unknown
Longitude
Unknown
Altitude
Unknown
Speed
Unknown
Apparent Right ascension
Unknown
Apparent Declination
Unknown
Sunlit
N/A
Visualization observer readout
Local Sidereal Time
11:30:58
Azimuth
Unknown
Elevation
Unknown
Doppler factor
Unknown
Orbital elements
Apogee altitude
35,863.744 km
Perigee altitude
35,612.503 km
Semi-major axis
42,116.261 km
Eccentricity
0.00298
Inclination
1.1039°
RAAN
88.0151°
Arg. of periapsis
299.0363°
True anomaly
61.39766°
Mean anomaly
61.0979°
Eccentric anomaly
61.24773°
Mean motion
0.25111 °/min
Orbital period
1,433.62 mins
BSTAR
0
Loading maneuver chart data...
Computing Atmospheric mass density...
Loading historical data...
Loading historical data...
Loading historical data...
Loading historical data...
Loading historical data...
Loading historical data...
Loading historical data...
Other satellites on launch #46 in the year 1970 (1970-06-19 UTC)

Documentation

Showing up to 5 results
|